Location: Newark
(25.6108°S, 54.5803°W)
Time: 15:41:17
(UTC+00:00)

Courier 1B Rocket - Pass Details

Date: 30 October 2020
Orbit: 920 x 1202 km, 28.2° (Epoch: 22 November)

Event Time Altitude Azimuth Distance (km) Brightness Sun altitude
Rises 15:04:23 0° 261° (W) 3,657 7.9 77.7°
Reaches altitude 10° 15:07:17 10° 270° (W) 2,675 7.4 78.0°
Maximum altitude 15:13:02 35° 333° (NNW) 1,443 6.7 78.3°
Drops below altitude 10° 15:18:38 10° 38° (NE) 2,603 7.5 78.4°
Sets 15:21:26 0° 46° (NE) 3,546 8.1 78.5°
